Time,TemperatureF,DewpointF,PressureIn,WindDirection,WindDirectionDegrees,WindSpeedMPH,WindSpeedGustMPH,Humidity,HourlyPrecipIn,Conditions,Clouds,dailyrainin,SoftwareType,DateUTC
2013-04-26 00:00:00,71.6,63.0,30.18,NE,40,2.0,-999.0,73,-99.99,,,0.00,weatherlink.com 1.10,2013-04-26 04:00:00,
2013-04-26 00:15:00,71.6,63.0,30.18,ENE,63,1.0,-999.0,73,-99.99,,,0.00,weatherlink.com 1.10,2013-04-26 04:15:00,
2013-04-26 00:30:00,71.2,63.0,30.18,ENE,67,0.0,-999.0,74,-99.99,,,0.00,weatherlink.com 1.10,2013-04-26 04:30:00,
2013-04-26 00:45:00,71.0,63.0,30.17,SE,146,0.0,-999.0,75,-99.99,,,0.00,weatherlink.com 1.10,2013-04-26 04:45:00,
2013-04-26 01:00:00,70.7,62.0,30.17,ESE,114,0.0,-999.0,75,-99.99,,,0.00,weatherlink.com 1.10,2013-04-26 05:00:00,
2013-04-26 01:15:00,70.3,62.0,30.17,ESE,115,0.0,-999.0,75,-99.99,,,0.00,weatherlink.com 1.10,2013-04-26 05:15:00,
2013-04-26 01:30:00,70.1,62.0,30.16,SE,136,0.0,-999.0,76,-99.99,,,0.00,weatherlink.com 1.10,2013-04-26 05:30:00,
2013-04-26 01:45:00,69.5,62.0,30.16,SE,136,0.0,-999.0,77,-99.99,,,0.00,weatherlink.com 1.10,2013-04-26 05:45:00,
2013-04-26 02:00:00,69.7,62.0,30.15,ESE,120,0.0,-999.0,77,-99.99,,,0.00,weatherlink.com 1.10,2013-04-26 06:00:00,
2013-04-26 02:15:00,69.7,62.0,30.15,SE,140,1.0,-999.0,76,-99.99,,,0.00,weatherlink.com 1.10,2013-04-26 06:15:00,
2013-04-26 02:30:00,70.0,62.0,30.14,SE,134,0.0,-999.0,75,-99.99,,,0.00,weatherlink.com 1.10,2013-04-26 06:30:00,
2013-04-26 02:45:00,70.2,62.0,30.13,ESE,109,1.0,-999.0,75,-99.99,,,0.00,weatherlink.com 1.10,2013-04-26 06:45:00,
2013-04-26 03:00:00,70.1,62.0,30.13,ESE,115,0.0,-999.0,75,-99.99,,,0.00,weatherlink.com 1.10,2013-04-26 07:00:00,
2013-04-26 03:15:00,69.6,62.0,30.12,ESE,110,0.0,-999.0,76,-99.99,,,0.00,weatherlink.com 1.10,2013-04-26 07:15:00,
2013-04-26 03:30:00,69.8,62.0,30.11,SE,137,0.0,-999.0,76,-99.99,,,0.00,weatherlink.com 1.10,2013-04-26 07:30:00,
2013-04-26 03:45:00,69.8,62.0,30.11,ESE,110,0.0,-999.0,76,-99.99,,,0.00,weatherlink.com 1.10,2013-04-26 07:45:00,
2013-04-26 04:00:00,69.6,62.0,30.11,East,97,0.0,-999.0,78,-99.99,,,0.00,weatherlink.com 1.10,2013-04-26 08:00:00,
2013-04-26 04:15:00,69.4,62.0,30.11,SSE,148,0.0,-999.0,78,-99.99,,,0.00,weatherlink.com 1.10,2013-04-26 08:15:00,
2013-04-26 04:30:00,69.0,62.0,30.10,ESE,118,0.0,-999.0,79,-99.99,,,0.00,weatherlink.com 1.10,2013-04-26 08:30:00,
2013-04-26 04:46:00,68.3,62.0,30.10,ESE,118,0.0,-999.0,80,-99.99,,,0.00,weatherlink.com 1.10,2013-04-26 08:46:00,
2013-04-26 05:16:00,66.6,62.0,30.10,ESE,118,0.0,-999.0,84,-99.99,,,0.00,weatherlink.com 1.10,2013-04-26 09:16:00,
2013-04-26 05:31:00,66.3,62.0,30.11,ESE,118,0.0,-999.0,87,-99.99,,,0.00,weatherlink.com 1.10,2013-04-26 09:31:00,
2013-04-26 05:46:00,66.2,63.0,30.11,ESE,119,0.0,-999.0,88,-99.99,,,0.00,weatherlink.com 1.10,2013-04-26 09:46:00,
2013-04-26 06:01:00,66.3,63.0,30.11,ESE,118,0.0,-999.0,89,-99.99,,,0.00,weatherlink.com 1.10,2013-04-26 10:01:00,
2013-04-26 06:16:00,66.1,63.0,30.12,ESE,119,0.0,-999.0,90,-99.99,,,0.00,weatherlink.com 1.10,2013-04-26 10:16:00,
2013-04-26 06:31:00,65.5,63.0,30.12,ESE,119,0.0,-999.0,90,-99.99,,,0.00,weatherlink.com 1.10,2013-04-26 10:31:00,
2013-04-26 06:46:00,65.5,63.0,30.13,ESE,118,0.0,-999.0,91,-99.99,,,0.00,weatherlink.com 1.10,2013-04-26 10:46:00,
2013-04-26 07:01:00,65.3,63.0,30.13,ESE,118,0.0,-999.0,91,-99.99,,,0.00,weatherlink.com 1.10,2013-04-26 11:01:00,
2013-04-26 07:16:00,65.5,63.0,30.14,ESE,118,0.0,-999.0,91,-99.99,,,0.00,weatherlink.com 1.10,2013-04-26 11:16:00,
2013-04-26 07:31:00,66.6,64.0,30.15,NW,319,0.0,-999.0,90,-99.99,,,0.00,weatherlink.com 1.10,2013-04-26 11:31:00,
2013-04-26 07:46:00,68.1,65.0,30.16,NW,319,0.0,-999.0,88,-99.99,,,0.00,weatherlink.com 1.10,2013-04-26 11:46:00,
2013-04-26 08:01:00,69.4,65.0,30.16,NW,319,0.0,-999.0,86,-99.99,,,0.00,weatherlink.com 1.10,2013-04-26 12:01:00,
2013-04-26 08:16:00,70.9,66.0,30.17,NW,311,0.0,-999.0,84,-99.99,,,0.00,weatherlink.com 1.10,2013-04-26 12:16:00,
2013-04-26 08:31:00,72.3,66.0,30.17,NW,319,0.0,-999.0,81,-99.99,,,0.00,weatherlink.com 1.10,2013-04-26 12:31:00,
2013-04-26 08:46:00,74.0,67.0,30.17,NW,319,0.0,-999.0,78,-99.99,,,0.00,weatherlink.com 1.10,2013-04-26 12:46:00,
2013-04-26 09:01:00,75.9,67.0,30.18,NW,316,0.0,-999.0,73,-99.99,,,0.00,weatherlink.com 1.10,2013-04-26 13:01:00,
2013-04-26 09:16:00,76.5,65.0,30.18,East,96,6.0,-999.0,68,-99.99,,,0.00,weatherlink.com 1.10,2013-04-26 13:16:00,
2013-04-26 09:31:00,76.9,66.0,30.19,East,94,2.0,-999.0,68,-99.99,,,0.00,weatherlink.com 1.10,2013-04-26 13:31:00,
2013-04-26 09:46:00,77.5,65.0,30.19,ENE,64,2.0,-999.0,66,-99.99,,,0.00,weatherlink.com 1.10,2013-04-26 13:46:00,
2013-04-26 10:01:00,78.1,65.0,30.19,ENE,59,8.0,-999.0,64,-99.99,,,0.00,weatherlink.com 1.10,2013-04-26 14:01:00,
2013-04-26 10:16:00,78.6,66.0,30.20,West,272,0.0,-999.0,65,-99.99,,,0.00,weatherlink.com 1.10,2013-04-26 14:16:00,
2013-04-26 10:31:00,78.3,65.0,30.20,NNE,26,1.0,-999.0,64,-99.99,,,0.00,weatherlink.com 1.10,2013-04-26 14:31:00,
2013-04-26 10:46:00,79.2,65.0,30.20,East,82,0.0,-999.0,62,-99.99,,,0.00,weatherlink.com 1.10,2013-04-26 14:46:00,
2013-04-26 11:01:00,78.8,66.0,30.21,NE,44,3.0,-999.0,65,-99.99,,,0.00,weatherlink.com 1.10,2013-04-26 15:01:00,
2013-04-26 11:16:00,80.0,66.0,30.20,NW,323,1.0,-999.0,63,-99.99,,,0.00,weatherlink.com 1.10,2013-04-26 15:16:00,
2013-04-26 11:31:00,80.2,65.0,30.21,ESE,109,2.0,-999.0,61,-99.99,,,0.00,weatherlink.com 1.10,2013-04-26 15:31:00,
2013-04-26 11:46:00,81.1,65.0,30.20,East,100,7.0,-999.0,59,-99.99,,,0.00,weatherlink.com 1.10,2013-04-26 15:46:00,
2013-04-26 12:01:00,80.9,66.0,30.20,NE,46,1.0,-999.0,60,-99.99,,,0.00,weatherlink.com 1.10,2013-04-26 16:01:00,
2013-04-26 12:16:00,81.6,64.0,30.20,WNW,292,4.0,-999.0,56,-99.99,,,0.00,weatherlink.com 1.10,2013-04-26 16:16:00,
2013-04-26 12:31:00,82.6,66.0,30.20,ENE,69,2.0,-999.0,58,-99.99,,,0.00,weatherlink.com 1.10,2013-04-26 16:31:00,
2013-04-26 12:47:00,81.4,65.0,30.19,NW,306,0.0,-999.0,58,-99.99,,,0.00,weatherlink.com 1.10,2013-04-26 16:47:00,
2013-04-26 13:02:00,82.8,65.0,30.19,NE,44,5.0,-999.0,56,-99.99,,,0.00,weatherlink.com 1.10,2013-04-26 17:02:00,
2013-04-26 13:17:00,81.3,64.0,30.19,East,84,4.0,-999.0,56,-99.99,,,0.00,weatherlink.com 1.10,2013-04-26 17:17:00,
2013-04-26 13:32:00,82.0,65.0,30.19,NE,39,6.0,-999.0,56,-99.99,,,0.00,weatherlink.com 1.10,2013-04-26 17:32:00,
2013-04-26 13:47:00,82.0,65.0,30.19,NNE,20,8.0,-999.0,57,-99.99,,,0.00,weatherlink.com 1.10,2013-04-26 17:47:00,
2013-04-26 14:02:00,82.1,65.0,30.19,NE,39,5.0,-999.0,57,-99.99,,,0.00,weatherlink.com 1.10,2013-04-26 18:02:00,
2013-04-26 14:17:00,81.8,66.0,30.19,ENE,58,2.0,-999.0,59,-99.99,,,0.00,weatherlink.com 1.10,2013-04-26 18:17:00,
2013-04-26 14:32:00,81.3,66.0,30.18,ENE,70,4.0,-999.0,60,-99.99,,,0.00,weatherlink.com 1.10,2013-04-26 18:32:00,
2013-04-26 14:47:00,81.7,66.0,30.18,East,86,3.0,-999.0,60,-99.99,,,0.00,weatherlink.com 1.10,2013-04-26 18:47:00,
2013-04-26 15:02:00,81.9,67.0,30.17,East,89,5.0,-999.0,60,-99.99,,,0.00,weatherlink.com 1.10,2013-04-26 19:02:00,
2013-04-26 15:17:00,81.8,67.0,30.16,East,80,3.0,-999.0,61,-99.99,,,0.00,weatherlink.com 1.10,2013-04-26 19:17:00,
2013-04-26 15:32:00,81.4,66.0,30.16,ESE,105,5.0,-999.0,60,-99.99,,,0.00,weatherlink.com 1.10,2013-04-26 19:32:00,
2013-04-26 15:47:00,81.5,67.0,30.16,ENE,74,3.0,-999.0,62,-99.99,,,0.00,weatherlink.com 1.10,2013-04-26 19:47:00,
2013-04-26 16:02:00,81.3,66.0,30.15,East,84,5.0,-999.0,60,-99.99,,,0.00,weatherlink.com 1.10,2013-04-26 20:02:00,
2013-04-26 16:17:00,81.4,66.0,30.15,NE,55,8.0,-999.0,60,-99.99,,,0.00,weatherlink.com 1.10,2013-04-26 20:17:00,
2013-04-26 16:32:00,80.8,66.0,30.16,East,82,7.0,-999.0,61,-99.99,,,0.00,weatherlink.com 1.10,2013-04-26 20:32:00,
2013-04-26 16:47:00,80.6,66.0,30.15,ENE,64,1.0,-999.0,62,-99.99,,,0.00,weatherlink.com 1.10,2013-04-26 20:47:00,
2013-04-26 17:02:00,80.7,67.0,30.15,ENE,72,12.0,-999.0,64,-99.99,,,0.00,weatherlink.com 1.10,2013-04-26 21:02:00,
2013-04-26 17:17:00,80.3,66.0,30.15,NE,44,6.0,-999.0,62,-99.99,,,0.00,weatherlink.com 1.10,2013-04-26 21:17:00,
2013-04-26 17:32:00,79.8,67.0,30.15,ESE,114,7.0,-999.0,64,-99.99,,,0.00,weatherlink.com 1.10,2013-04-26 21:32:00,
2013-04-26 17:47:00,79.5,67.0,30.15,East,92,2.0,-999.0,65,-99.99,,,0.00,weatherlink.com 1.10,2013-04-26 21:47:00,
2013-04-26 18:02:00,79.4,67.0,30.15,ESE,109,9.0,-999.0,65,-99.99,,,0.00,weatherlink.com 1.10,2013-04-26 22:02:00,
2013-04-26 18:17:00,78.8,66.0,30.15,East,82,4.0,-999.0,65,-99.99,,,0.00,weatherlink.com 1.10,2013-04-26 22:17:00,
2013-04-26 18:32:00,78.5,66.0,30.15,East,91,4.0,-999.0,66,-99.99,,,0.00,weatherlink.com 1.10,2013-04-26 22:32:00,
2013-04-26 18:47:00,78.4,66.0,30.14,NE,49,3.0,-999.0,66,-99.99,,,0.00,weatherlink.com 1.10,2013-04-26 22:47:00,
2013-04-26 19:02:00,78.1,66.0,30.14,NNW,339,1.0,-999.0,67,-99.99,,,0.00,weatherlink.com 1.10,2013-04-26 23:02:00,
2013-04-26 19:17:00,77.5,67.0,30.15,ENE,69,4.0,-999.0,69,-99.99,,,0.00,weatherlink.com 1.10,2013-04-26 23:17:00,
2013-04-26 19:32:00,76.7,67.0,30.15,East,97,5.0,-999.0,71,-99.99,,,0.00,weatherlink.com 1.10,2013-04-26 23:32:00,
2013-04-26 19:47:00,76.0,66.0,30.15,SE,133,4.0,-999.0,71,-99.99,,,0.00,weatherlink.com 1.10,2013-04-26 23:47:00,
2013-04-26 20:17:00,75.4,67.0,30.16,ENE,69,2.0,-999.0,74,-99.99,,,0.00,weatherlink.com 1.10,2013-04-27 00:17:00,
2013-04-26 20:32:00,75.2,66.0,30.16,ENE,74,2.0,-999.0,74,-99.99,,,0.00,weatherlink.com 1.10,2013-04-27 00:32:00,
2013-04-26 20:47:00,75.0,66.0,30.17,ENE,78,1.0,-999.0,74,-99.99,,,0.00,weatherlink.com 1.10,2013-04-27 00:47:00,
2013-04-26 21:02:00,74.9,67.0,30.17,ENE,64,2.0,-999.0,75,-99.99,,,0.00,weatherlink.com 1.10,2013-04-27 01:02:00,
2013-04-26 21:17:00,74.7,67.0,30.17,ESE,115,0.0,-999.0,76,-99.99,,,0.00,weatherlink.com 1.10,2013-04-27 01:17:00,
2013-04-26 21:32:00,74.5,67.0,30.18,ENE,64,2.0,-999.0,76,-99.99,,,0.00,weatherlink.com 1.10,2013-04-27 01:32:00,
2013-04-26 21:47:00,74.5,67.0,30.18,East,82,2.0,-999.0,76,-99.99,,,0.00,weatherlink.com 1.10,2013-04-27 01:47:00,
2013-04-26 22:02:00,74.6,66.0,30.18,East,80,4.0,-999.0,75,-99.99,,,0.00,weatherlink.com 1.10,2013-04-27 02:02:00,
2013-04-26 22:17:00,74.7,66.0,30.18,ENE,72,2.0,-999.0,75,-99.99,,,0.00,weatherlink.com 1.10,2013-04-27 02:17:00,
2013-04-26 22:32:00,74.6,66.0,30.19,SSE,152,0.0,-999.0,75,-99.99,,,0.00,weatherlink.com 1.10,2013-04-27 02:32:00,
2013-04-26 22:47:00,74.6,66.0,30.18,ESE,107,4.0,-999.0,75,-99.99,,,0.00,weatherlink.com 1.10,2013-04-27 02:47:00,
2013-04-26 23:02:00,74.6,66.0,30.19,ENE,67,2.0,-999.0,74,-99.99,,,0.00,weatherlink.com 1.10,2013-04-27 03:02:00,
2013-04-26 23:17:00,74.5,66.0,30.19,ENE,73,0.0,-999.0,74,-99.99,,,0.00,weatherlink.com 1.10,2013-04-27 03:17:00,
2013-04-26 23:32:00,74.4,66.0,30.19,SE,133,1.0,-999.0,74,-99.99,,,0.00,weatherlink.com 1.10,2013-04-27 03:32:00,
2013-04-26 23:47:00,74.4,66.0,30.19,ENE,69,0.0,-999.0,74,-99.99,,,0.00,weatherlink.com 1.10,2013-04-27 03:47:00,